• In Österreich
  • Länderverzeichnis
  • Für 7 Tage
  • Wassertemperatur
  • Satellitenkarten
  • Wetterkarte
  • News
  • Widgets
  • user-avatar
    Anmelden

    Stündliche Wetter Brzeziny

    Heute, 23 Oktober, Dienstag

    Zeit Temperatur Niederschläge Wind Luftdruck Luftfeuchtigkeit
    00:00 +5°C° 0 mm 4 m/S 756 mmHg 85%
    01:00 +4°C° 0 mm 3 m/S 756 mmHg 87%
    02:00 +4°C° 0 mm 4 m/S 756 mmHg 87%
    03:00 +4°C° 0 mm 4 m/S 755 mmHg 87%
    04:00 +4°C° 0 mm 4 m/S 754 mmHg 88%
    05:00 +3°C° 0 mm 5 m/S 754 mmHg 85%
    06:00 +3°C° 0 mm 6 m/S 753 mmHg 82%
    07:00 +4°C° 0 mm 7 m/S 752 mmHg 80%
    08:00 +4°C° 0 mm 8 m/S 751 mmHg 75%
    09:00 +5°C° 0 mm 9 m/S 749 mmHg 70%
    10:00 +6°C° 0 mm 10 m/S 748 mmHg 65%
    11:00 +6°C° 1.1 mm 10 m/S 747 mmHg 68%
    12:00 +6°C° 1.1 mm 11 m/S 746 mmHg 71%
    13:00 +6°C° 1.1 mm 11 m/S 745 mmHg 75%
    14:00 +6°C° 1.1 mm 11 m/S 743 mmHg 77%
    15:00 +6°C° 1.1 mm 11 m/S 742 mmHg 78%
    16:00 +7°C° 1.1 mm 11 m/S 741 mmHg 80%
    17:00 +7°C° 1 mm 11 m/S 740 mmHg 82%
    18:00 +8°C° 1 mm 11 m/S 740 mmHg 83%
    19:00 +8°C° 1 mm 11 m/S 739 mmHg 85%
    20:00 +8°C° 1.2 mm 11 m/S 738 mmHg 82%
    21:00 +8°C° 1.2 mm 10 m/S 738 mmHg 80%
    22:00 +8°C° 1.2 mm 10 m/S 738 mmHg 77%
    23:00 +8°C° 0.1 mm 10 m/S 738 mmHg 76%

    Morgen, 24 Oktober, Mittwoch

    Zeit Temperatur Niederschläge Wind Luftdruck Luftfeuchtigkeit
    00:00 +7°C° 0.1 mm 10 m/S 737 mmHg 76%
    01:00 +6°C° 0.1 mm 10 m/S 737 mmHg 75%
    02:00 +6°C° 0.1 mm 10 m/S 737 mmHg 72%
    03:00 +6°C° 0.1 mm 10 m/S 737 mmHg 69%
    04:00 +5°C° 0.1 mm 10 m/S 738 mmHg 66%
    05:00 +5°C° 0.1 mm 10 m/S 738 mmHg 67%
    06:00 +5°C° 0.1 mm 10 m/S 739 mmHg 67%
    07:00 +3°C° 0.1 mm 9 m/S 740 mmHg 68%
    08:00 +5°C° 0.1 mm 10 m/S 740 mmHg 61%
    09:00 +4°C° 0.1 mm 11 m/S 741 mmHg 54%
    10:00 +6°C° 0.1 mm 11 m/S 742 mmHg 48%
    11:00 +6°C° 0 mm 11 m/S 742 mmHg 46%
    12:00 +6°C° 0 mm 11 m/S 743 mmHg 44%
    13:00 +7°C° 0 mm 11 m/S 743 mmHg 42%
    14:00 +6°C° 0 mm 10 m/S 744 mmHg 43%
    15:00 +6°C° 0 mm 9 m/S 744 mmHg 44%
    16:00 +6°C° 0 mm 8 m/S 745 mmHg 46%
    17:00 +5°C° 0 mm 8 m/S 745 mmHg 48%
    18:00 +5°C° 0 mm 7 m/S 746 mmHg 50%
    19:00 +4°C° 0 mm 7 m/S 747 mmHg 53%
    20:00 +4°C° 0 mm 6 m/S 747 mmHg 56%
    21:00 +3°C° 0 mm 6 m/S 747 mmHg 59%
    22:00 +3°C° 0 mm 6 m/S 748 mmHg 62%
    23:00 +3°C° 0 mm 6 m/S 748 mmHg 65%

    übermorgen, 25 Oktober, Donnerstag

    Zeit Temperatur Niederschläge Wind Luftdruck Luftfeuchtigkeit
    00:00 +3°C° 0 mm 6 m/S 748 mmHg 68%
    01:00 +2°C° 0 mm 5 m/S 748 mmHg 70%
    02:00 +2°C° 0 mm 5 m/S 747 mmHg 72%
    03:00 +2°C° 0 mm 5 m/S 747 mmHg 74%
    04:00 +2°C° 0 mm 5 m/S 746 mmHg 75%
    05:00 +3°C° 0.7 mm 5 m/S 746 mmHg 80%
    06:00 +3°C° 0.7 mm 5 m/S 745 mmHg 85%
    07:00 +5°C° 0.7 mm 5 m/S 744 mmHg 89%
    08:00 +5°C° 0.9 mm 6 m/S 744 mmHg 88%
    09:00 +7°C° 0.9 mm 8 m/S 743 mmHg 88%
    10:00 +8°C° 0.9 mm 9 m/S 742 mmHg 87%
    11:00 +10°C° 0.3 mm 9 m/S 742 mmHg 86%
    12:00 +10°C° 0.3 mm 9 m/S 742 mmHg 85%
    13:00 +9°C° 0.3 mm 10 m/S 741 mmHg 84%
    14:00 +10°C° 0.2 mm 9 m/S 742 mmHg 83%
    15:00 +10°C° 0.2 mm 9 m/S 742 mmHg 81%
    16:00 +10°C° 0.2 mm 9 m/S 742 mmHg 80%
    17:00 +10°C° 0.2 mm 8 m/S 742 mmHg 80%
    18:00 +9°C° 0.2 mm 7 m/S 743 mmHg 80%
    19:00 +9°C° 0.2 mm 7 m/S 743 mmHg 80%
    20:00 +8°C° 0.1 mm 6 m/S 743 mmHg 80%
    21:00 +8°C° 0.1 mm 5 m/S 744 mmHg 80%
    22:00 +7°C° 0.1 mm 5 m/S 744 mmHg 80%
    23:00 +7°C° 0 mm 5 m/S 744 mmHg 81%

    26 Oktober, Freitag

    Zeit Temperatur Niederschläge Wind Luftdruck Luftfeuchtigkeit
    00:00 +6°C° 0 mm 5 m/S 744 mmHg 82%
    01:00 +6°C° 0 mm 5 m/S 744 mmHg 83%
    02:00 +6°C° 0 mm 5 m/S 744 mmHg 84%
    03:00 +5°C° 0 mm 5 m/S 744 mmHg 85%
    04:00 +5°C° 0 mm 5 m/S 744 mmHg 86%
    05:00 +5°C° 0 mm 4 m/S 744 mmHg 88%
    06:00 +5°C° 0 mm 4 m/S 744 mmHg 89%
    07:00 +5°C° 0 mm 3 m/S 744 mmHg 90%
    08:00 +6°C° 0.1 mm 4 m/S 744 mmHg 89%
    09:00 +6°C° 0.1 mm 4 m/S 744 mmHg 88%
    10:00 +7°C° 0.1 mm 4 m/S 743 mmHg 86%
    11:00 +8°C° 0.1 mm 4 m/S 743 mmHg 83%
    12:00 +9°C° 0.1 mm 5 m/S 742 mmHg 80%
    13:00 +12°C° 0.1 mm 5 m/S 742 mmHg 77%
    14:00 +12°C° 0 mm 5 m/S 741 mmHg 76%
    15:00 +10°C° 0 mm 5 m/S 741 mmHg 76%
    16:00 +10°C° 0 mm 5 m/S 740 mmHg 75%
    17:00 +10°C° 0 mm 5 m/S 740 mmHg 75%
    18:00 +9°C° 0 mm 5 m/S 740 mmHg 75%
    19:00 +9°C° 0 mm 6 m/S 740 mmHg 76%
    20:00 +8°C° 0 mm 6 m/S 740 mmHg 75%
    21:00 +8°C° 0 mm 6 m/S 739 mmHg 75%
    22:00 +8°C° 0 mm 6 m/S 739 mmHg 74%
    23:00 +6°C° 0 mm 7 m/S 740 mmHg 74%

    27 Oktober, Samstag

    Zeit Temperatur Niederschläge Wind Luftdruck Luftfeuchtigkeit
    00:00 +6°C° 0 mm 7 m/S 740 mmHg 73%
    01:00 +6°C° 0 mm 7 m/S 740 mmHg 73%
    02:00 +5°C° 0 mm 7 m/S 740 mmHg 73%
    03:00 +4°C° 0 mm 7 m/S 741 mmHg 74%
    04:00 +4°C° 0 mm 7 m/S 741 mmHg 74%
    05:00 +4°C° 0 mm 7 m/S 741 mmHg 74%
    06:00 +4°C° 0 mm 7 m/S 742 mmHg 74%
    07:00 +4°C° 0 mm 7 m/S 742 mmHg 73%
    08:00 +4°C° 0 mm 7 m/S 742 mmHg 71%
    09:00 +5°C° 0 mm 7 m/S 743 mmHg 69%
    10:00 +5°C° 0 mm 7 m/S 743 mmHg 67%
    11:00 +7°C° 0 mm 6 m/S 743 mmHg 65%
    12:00 +7°C° 0 mm 6 m/S 743 mmHg 64%
    13:00 +7°C° 0 mm 5 m/S 744 mmHg 62%
    14:00 +7°C° 0 mm 5 m/S 744 mmHg 63%
    15:00 +7°C° 0 mm 4 m/S 744 mmHg 64%
    16:00 +8°C° 0 mm 3 m/S 744 mmHg 65%
    17:00 +7°C° 0 mm 2 m/S 745 mmHg 67%
    18:00 +7°C° 0 mm 2 m/S 745 mmHg 69%
    19:00 +7°C° 0 mm 1 m/S 746 mmHg 72%
    20:00 +7°C° 0 mm 1 m/S 746 mmHg 73%
    21:00 +6°C° 0 mm 0 m/S 746 mmHg 74%
    22:00 +5°C° 0 mm 0 m/S 746 mmHg 75%
    23:00 +5°C° 0 mm 0 m/S 746 mmHg 76%

    28 Oktober, Sonntag

    Zeit Temperatur Niederschläge Wind Luftdruck Luftfeuchtigkeit
    00:00 +6°C° 0 mm 1 m/S 746 mmHg 76%
    01:00 +6°C° 0 mm 1 m/S 746 mmHg 77%
    02:00 +6°C° 0 mm 1 m/S 746 mmHg 77%
    03:00 +5°C° 0 mm 2 m/S 747 mmHg 78%
    04:00 +5°C° 0 mm 2 m/S 747 mmHg 78%
    05:00 +5°C° 0 mm 2 m/S 747 mmHg 78%
    06:00 +4°C° 0 mm 3 m/S 747 mmHg 78%
    07:00 +4°C° 0 mm 3 m/S 747 mmHg 78%
    08:00 +4°C° 0.3 mm 3 m/S 747 mmHg 77%
    09:00 +4°C° 0.3 mm 4 m/S 747 mmHg 76%
    10:00 +5°C° 0.3 mm 4 m/S 747 mmHg 75%
    11:00 +5°C° 0.8 mm 5 m/S 747 mmHg 75%
    12:00 +4°C° 0.8 mm 6 m/S 746 mmHg 74%
    13:00 +4°C° 0.8 mm 6 m/S 746 mmHg 74%
    14:00 +3°C° 1.2 mm 7 m/S 746 mmHg 75%
    15:00 +3°C° 1.2 mm 7 m/S 746 mmHg 77%
    16:00 +3°C° 1.2 mm 7 m/S 746 mmHg 78%
    17:00 +3°C° 0.5 mm 7 m/S 746 mmHg 79%
    18:00 +2°C° 0.5 mm 8 m/S 746 mmHg 80%
    19:00 +2°C° 0.5 mm 8 m/S 746 mmHg 81%
    20:00 +2°C° 0.3 mm 8 m/S 745 mmHg 82%
    21:00 +2°C° 0.3 mm 8 m/S 745 mmHg 82%
    22:00 +2°C° 0.3 mm 8 m/S 745 mmHg 83%
    23:00 +2°C° 2.2 mm 8 m/S 744 mmHg 84%

    29 Oktober, Montag

    Zeit Temperatur Niederschläge Wind Luftdruck Luftfeuchtigkeit
    00:00 +2°C° 2.2 mm 8 m/S 744 mmHg 85%
    01:00 +2°C° 2.2 mm 8 m/S 743 mmHg 86%
    02:00 +1°C° 1.5 mm 8 m/S 743 mmHg 86%
    03:00 +1°C° 1.5 mm 9 m/S 742 mmHg 86%
    04:00 +1°C° 1.5 mm 9 m/S 742 mmHg 85%
    05:00 +1°C° 1.2 mm 9 m/S 741 mmHg 86%
    06:00 +1°C° 1.2 mm 9 m/S 741 mmHg 86%
    07:00 +1°C° 1.2 mm 8 m/S 741 mmHg 87%
    08:00 +1°C° 1.2 mm 8 m/S 741 mmHg 87%
    09:00 +1°C° 1.2 mm 8 m/S 741 mmHg 87%
    10:00 +1°C° 1.2 mm 8 m/S 740 mmHg 88%
    11:00 +1°C° 1.6 mm 8 m/S 740 mmHg 88%
    12:00 +2°C° 1.6 mm 7 m/S 740 mmHg 89%
    13:00 +2°C° 1.6 mm 7 m/S 740 mmHg 90%
    14:00 +2°C° 0.7 mm 7 m/S 739 mmHg 90%
    15:00 +3°C° 0.7 mm 6 m/S 739 mmHg 91%
    16:00 +3°C° 0.7 mm 6 m/S 739 mmHg 91%
    17:00 +3°C° 0.1 mm 6 m/S 739 mmHg 92%
    18:00 +3°C° 0.1 mm 5 m/S 739 mmHg 92%
    19:00 +4°C° 0.1 mm 4 m/S 739 mmHg 93%
    20:00 +4°C° 0 mm 4 m/S 739 mmHg 93%
    21:00 +5°C° 0 mm 4 m/S 739 mmHg 94%
    22:00 +5°C° 0 mm 4 m/S 739 mmHg 95%
    23:00 +5°C° 0 mm 4 m/S 739 mmHg 95%
    Mehr zeigen